Regional Weather Roundup
Issued by NWS

Home | Current Version | Previous Version | Text Only | Print | Product List | Glossary On
Versions: 1 2 3 4 5 6 7 8 9 10 11 12 13 14 15 16 17 18 19 20 21 22 23 24 25 26 27 28 29 30 31 32 33 34 35 36 37 38 39 40 41 42 43 44 45 46 47 48 49 50
000
ASUS44 KOUN 230100
RWROK

WEATHER ROUNDUP FOR OKLAHOMA
NATIONAL WEATHER SERVICE NORMAN OK
700 PM CST MON JAN 22 2018

NOTE: "FAIR" INDICATES FEW OR NO CLOUDS BELOW 12,000 FEET WITH NO
      SIGNIFICANT WEATHER AND/OR OBSTRUCTIONS TO VISIBILITY.

OKZ001>007-009>012-014-015-017-230200-
NORTHWEST OKLAHOMA AND THE PANHANDLE

CITY           SKY/WX    TMP DP  RH WIND       PRES   REMARKS
GAGE           CLEAR     35  13  40 NW8       30.07R WCI  29
GUYMON         CLEAR     34  10  37 W7        30.10R WCI  28
ENID/WOODRING  PTCLDY    45  21  39 W16G23    29.99R
$$

OKZ016-021>023-033>039-044-045-230200-
SOUTHWEST OKLAHOMA

CITY           SKY/WX    TMP DP  RH WIND       PRES   REMARKS
LAWTON/REGL    CLEAR     47  17  30 NW6       30.08R
LAWTON/FT SILL CLEAR     47  21  35 NW9       30.06R
FREDERICK      CLEAR     46  13  26 NW9       30.06R
CLINTON        CLEAR     39  12  33 NW8       30.08R WCI  33
HOBART         CLEAR     43  14  31 NW10      30.09R
ALTUS AFB      CLEAR     43   7  23 NW9       30.09R
$$

OKZ018>020-024>031-230200-
CENTRAL OKLAHOMA

CITY           SKY/WX    TMP DP  RH WIND       PRES   REMARKS
OKLAHOMA CITY  PTCLDY    44  18  35 NW12      30.02R
OKC/WILEY POST CLEAR     45  19  35 W9        30.02R
OKC/TINKER AFB CLEAR     45  19  35 NW10      30.01R
STILLWATER     MOCLDY    45  18  34 NW14G25   29.97R
GUTHRIE        MOCLDY    46  20  35 NW13      30.00R
$$

OKZ008-013-054>072-230200-
NORTHEAST OKLAHOMA

CITY           SKY/WX    TMP DP  RH WIND       PRES   REMARKS
TULSA          PTCLDY    46  24  42 W15       29.90R
TULSA/JONES    CLEAR     47  23  38 W12G30    29.92R
PONCA CITY     CLOUDY    44  19  36 W21G29    29.94R
BARTLESVILLE   CLOUDY    44  25  47 W13G23    29.90R
MUSKOGEE       CLEAR     43  27  53 W15       29.94R
$$

OKZ032-040>043-046>053-073>077-230200-
SOUTH CENTRAL/SOUTHEAST OKLAHOMA

CITY           SKY/WX    TMP DP  RH WIND       PRES   REMARKS
MCALESTER      PTCLDY    47  26  44 W13G23    30.00R
$$





USA.gov is the U.S. government's official web portal to all federal, state and local government web resources and services.